GFSGL_250_rhum_165.txt.gz
RH
100 100 100 100 97 86 81 69 56 44 43 43 61 72 73 77 85 83 79 60 42 39 23 22 16 16 18 21 40 57 78 70 69 66 51 56 50 48 37 24 18 8 10
100 100 100 89 83 81 68 57 44 42 46 52 70 89 89 81 81 78 57 40 41 29 24 17 17 19 22 31 52 67 83 74 74 72 61 64 72 64 54 41 19 15 14
98 88 78 96 96 64 64 50 50 63 63 71 88 95 93 94 80 67 38 40 37 25 20 18 20 21 27 41 66 78 82 78 78 74 68 77 73 71 66 45 30 18 15
81 100 74 91 81 60 66 68 73 80 61 82 100 99 95 92 72 47 34 37 26 21 18 19 22 23 32 51 82 93 83 82 80 76 74 72 82 78 74 54 37 20 13
82 98 74 80 85 81 70 72 83 57 78 98 100 100 91 77 52 33 36 29 22 18 19 21 22 26 36 56 84 96 90 89 83 77 82 88 81 85 76 56 34 22 15
94 100 100 100 100 74 88 80 61 72 100 100 98 82 79 62 35 38 34 23 19 19 21 22 24 33 44 56 80 92 88 95 96 85 90 83 88 86 84 65 34 22 17
100 98 100 100 96 73 78 67 75 100 100 96 84 77 68 39 41 41 25 20 20 19 21 25 32 39 49 69 78 88 93 89 92 92 92 88 88 90 86 79 46 26 21
87 87 88 90 78 68 74 96 100 99 84 84 87 72 44 44 44 28 22 22 21 22 27 30 40 44 51 62 87 92 94 94 96 85 94 98 92 89 84 84 79 40 29
85 72 70 91 99 99 100 100 89 88 87 88 75 49 42 46 35 24 23 24 25 26 30 34 41 49 51 60 75 96 100 94 87 92 87 92 93 96 97 92 83 79 56
100 100 100 100 100 100 97 90 87 82 87 79 53 42 47 42 26 26 29 31 35 36 33 35 38 44 54 55 69 83 96 100 98 89 90 82 93 90 95 100 98 89 83
100 100 100 100 100 97 92 82 78 85 73 57 43 47 51 30 28 32 35 37 42 46 47 46 39 39 44 52 56 65 77 90 97 100 99 87 78 84 95 100 100 100 95
100 100 100 98 89 88 76 77 80 66 60 46 50 56 33 30 36 39 43 45 44 46 49 50 52 49 47 45 48 50 59 69 80 85 95 100 93 86 76 78 88 90 100
100 99 96 97 88 79 73 66 57 51 50 58 60 38 30 40 46 50 53 54 49 46 43 42 43 48 53 54 53 52 49 52 58 64 73 80 86 88 81 81 70 78 78
100 96 94 88 84 70 62 52 46 58 68 65 42 33 43 55 57 63 65 67 58 51 45 42 40 40 40 41 44 49 53 53 50 50 52 59 65 73 76 77 78 71 68
99 96 94 91 76 61 48 38 60 71 72 46 35 43 58 65 72 72 79 77 64 62 58 54 49 44 40 38 36 35 35 34 36 43 48 48 49 56 62 66 69 68 75
100 95 85 74 66 32 31 68 75 66 49 40 40 55 68 74 82 83 84 77 69 69 68 67 67 63 55 47 40 34 32 30 29 29 28 30 39 43 45 49 54 58 58
80 75 58 38 31 28 68 83 68 50 45 43 48 64 76 80 86 90 92 83 76 72 69 65 61 59 57 54 51 42 34 31 27 26 25 24 23 24 26 37 40 42 47
43 36 32 34 34 47 81 74 52 46 42 47 59 71 80 84 89 93 97 88 84 76 72 68 60 53 48 44 41 37 35 31 26 23 22 20 21 21 21 22 22 26 34
44 41 40 43 52 64 79 59 50 42 46 57 72 78 81 88 93 95 97 88 83 78 74 70 63 57 50 40 32 27 24 22 22 21 20 19 19 18 19 19 19 19 19
44 43 49 57 66 69 63 49 48 42 50 70 78 81 79 88 96 95 91 85 81 76 72 69 64 55 41 32 24 20 18 17 16 17 16 17 16 16 17 17 17 17 16
52 53 55 60 64 56 48 42 41 43 57 82 85 82 80 90 98 94 87 83 79 78 72 67 58 45 35 27 20 16 14 13 13 13 14 14 14 14 14 14 14 15 14
40 38 40 43 42 41 42 35 41 49 71 84 86 84 89 95 94 91 89 85 82 76 69 59 47 35 27 19 14 12 11 10 10 10 10 10 11 11 11 11 11 11 11
34 28 26 28 27 27 29 39 48 64 75 80 87 88 94 94 93 92 88 82 78 69 59 46 35 24 17 14 12 11 10 9 8 8 8 7 8 8 8 8 8 8 7
23 24 24 24 26 33 40 52 62 68 78 85 90 90 90 92 91 88 86 79 68 57 42 31 21 17 15 14 12 10 9 8 8 7 7 7 7 6 6 6 6 6 5
25 27 32 37 42 52 55 59 65 74 81 84 88 91 90 91 88 81 73 63 50 40 27 21 20 19 16 14 12 10 9 8 8 8 8 7 7 7 6 6 6 5 5
37 42 47 51 55 59 62 72 81 85 88 92 94 93 89 83 75 64 53 45 35 27 24 22 19 14 12 10 9 9 8 8 8 8 8 8 8 9 9 8 8 7 7

GFSGL_250_rhum_168.txt.gz
RH
100 100 100 100 100 100 100 100 100 100 91 80 63 72 66 60 68 65 55 45 54 82 72 48 23 21 18 16 15 17 18 22 32 52 68 65 59 52 48 44 43 42 40
100 100 100 100 100 100 100 100 100 92 79 75 62 79 74 85 66 83 55 49 82 77 62 24 22 18 17 15 16 19 22 35 49 66 76 74 70 59 58 57 60 69 49
100 100 100 100 100 100 100 100 100 90 92 86 74 80 96 99 88 58 47 80 87 72 33 22 20 17 16 16 19 21 26 52 74 77 78 78 74 67 65 72 71 72 59
100 100 100 100 100 100 100 100 100 100 89 96 85 97 78 77 60 50 80 97 75 52 23 24 19 16 18 18 21 23 29 58 80 80 82 84 73 70 72 80 85 82 64
100 100 100 100 100 100 100 100 86 89 100 100 82 83 74 57 57 74 100 83 67 31 27 26 19 18 18 20 23 24 31 57 83 90 84 91 79 70 68 84 86 85 83
100 100 100 100 100 100 100 100 91 100 100 100 86 66 54 67 86 100 90 76 42 28 32 22 20 20 21 23 27 30 41 60 82 92 93 97 88 84 72 78 81 82 76
100 100 100 100 100 100 82 100 100 100 89 88 73 56 86 100 100 93 84 60 32 31 31 23 24 23 25 25 30 41 48 63 85 96 92 93 90 86 81 86 85 87 78
100 100 100 100 100 100 100 100 98 97 82 64 69 100 96 100 92 93 70 34 30 43 26 27 28 26 28 28 37 46 54 64 75 92 94 90 88 88 86 76 84 91 87
100 100 100 100 100 100 98 96 81 67 94 100 100 93 100 90 94 81 38 31 46 32 29 32 31 34 35 34 37 44 55 69 76 79 97 95 91 88 88 84 78 78 86
100 85 84 88 81 77 85 91 91 98 96 94 100 96 96 91 87 50 31 47 43 31 35 34 39 44 44 43 37 38 46 56 64 76 80 93 94 96 90 85 78 71 70
100 100 100 100 100 100 100 96 96 99 100 97 92 92 89 86 57 31 46 56 32 39 39 41 45 44 45 49 50 48 42 45 50 57 72 79 84 89 94 98 92 79 64
100 100 100 97 99 100 100 100 94 89 87 90 82 88 85 60 34 46 62 38 41 45 45 57 57 47 43 41 43 47 53 55 47 45 48 56 73 78 81 88 94 93 88
100 96 100 100 95 98 95 95 96 88 85 81 85 79 73 41 44 64 45 38 51 52 58 69 68 58 54 49 43 41 41 43 50 56 55 48 47 50 63 72 77 82 82
100 100 100 96 92 97 94 95 95 83 80 83 72 74 56 53 59 57 42 46 58 61 70 76 74 67 65 63 60 55 51 45 40 40 39 40 48 54 48 46 53 63 64
100 100 100 100 100 100 100 97 95 88 76 62 55 67 70 65 53 46 45 55 62 67 76 80 80 77 74 71 70 68 67 65 59 52 45 37 32 33 33 41 43 41 42
100 100 100 100 100 98 99 97 86 76 61 42 65 78 74 61 50 46 49 66 67 70 81 86 86 84 82 74 70 65 63 61 59 56 52 46 40 32 26 24 25 29 36
98 100 100 100 97 98 99 83 75 46 35 51 83 79 68 52 49 46 56 75 71 74 84 88 88 86 84 79 72 67 62 58 57 54 47 40 37 32 26 23 19 20 22
100 100 100 97 93 84 79 49 40 43 49 63 81 76 62 52 48 47 61 78 77 75 82 84 86 86 83 79 72 69 65 60 52 43 33 27 24 22 21 20 15 16 17
96 91 82 71 54 40 40 44 51 52 60 75 76 66 61 45 46 50 65 79 80 79 81 84 86 85 81 76 73 70 65 54 42 33 26 20 17 15 14 13 13 12 13
56 46 39 40 37 38 48 58 60 65 68 74 64 58 57 45 47 49 68 80 80 83 82 86 86 83 78 76 73 66 54 41 31 24 18 13 12 11 10 10 10 11 10
46 40 37 38 42 43 53 53 61 65 62 56 52 47 37 41 47 57 68 74 76 84 85 88 84 78 77 76 70 51 38 28 18 14 12 11 9 8 8 8 8 8 8
45 43 47 49 46 43 38 40 41 32 37 36 38 32 30 40 56 69 70 71 77 87 88 84 81 78 75 64 49 36 25 18 15 14 13 11 10 8 7 6 6 6 6
31 27 32 37 34 33 33 26 24 24 25 27 31 34 42 55 67 66 70 77 86 89 86 85 84 74 59 48 35 26 21 19 16 15 12 10 9 8 7 6 6 5 5
26 33 38 35 32 28 26 27 28 30 34 38 50 55 57 61 69 77 86 87 89 88 88 81 70 57 44 36 27 23 21 16 12 9 8 7 7 6 6 6 6 6 6
25 25 26 27 27 28 32 38 42 47 50 49 54 58 67 78 85 88 87 87 87 80 70 64 55 42 32 28 23 19 12 9 8 8 7 7 7 6 6 6 6 7 6
22 24 26 30 37 42 45 49 48 49 55 64 72 79 79 81 84 86 83 78 70 66 58 46 35 30 25 22 15 10 9 9 8 8 8 7 7 7 7 7 7 7 7

GFSGL_250_rhum_174.txt.gz
RH
100 100 96 90 99 100 100 100 100 100 100 100 100 100 100 100 100 100 100 97 98 82 67 60 58 50 65 61 56 54 45 40 21 15 18 14 15 17 19 26 40 36 36
92 85 83 87 100 100 88 100 100 100 100 100 100 100 100 100 100 100 100 97 75 64 66 66 70 68 82 74 60 47 47 37 18 19 18 16 16 19 25 33 50 50 47
93 99 100 100 100 100 98 93 95 100 100 100 100 100 100 100 100 100 93 68 60 62 65 79 91 91 79 73 53 52 46 30 18 23 17 17 19 21 29 39 58 58 59
99 99 91 99 100 100 100 100 100 100 100 100 100 100 100 100 99 92 85 83 73 66 91 94 100 88 77 56 55 54 46 21 25 22 17 17 19 24 34 44 68 63 66
100 93 100 74 92 100 100 100 100 100 100 100 100 100 100 100 91 98 92 84 69 97 100 99 83 90 59 60 62 54 34 20 29 20 19 17 20 24 42 48 70 71 74
100 100 100 68 99 98 100 100 100 100 100 100 100 100 100 100 100 100 86 100 100 100 100 92 99 71 66 67 64 49 21 28 25 23 25 21 21 27 39 63 76 82 79
100 100 100 100 100 87 100 100 100 97 100 100 100 100 100 100 100 100 100 100 100 100 100 98 92 68 71 73 65 33 22 34 25 26 31 31 22 26 38 63 80 81 94
100 100 100 100 100 100 100 100 100 100 100 100 100 100 100 100 100 100 100 100 100 100 100 99 67 72 78 70 47 23 37 33 29 32 34 40 33 26 37 47 69 84 90
100 100 100 100 100 100 100 100 100 100 100 100 100 100 100 100 100 100 100 100 100 100 99 69 74 81 78 56 28 33 48 34 35 40 38 41 46 37 35 43 51 73 84
100 100 100 100 100 100 100 100 100 100 100 100 100 100 100 100 100 100 100 97 100 88 77 77 79 78 65 34 30 52 51 41 45 49 44 41 45 50 47 42 48 55 72
99 99 100 100 100 100 100 100 100 100 100 100 100 100 100 100 100 100 95 88 73 80 70 74 73 72 43 30 44 59 46 47 55 56 56 50 43 43 52 56 53 50 53
89 96 100 100 100 100 100 100 100 100 100 100 100 100 99 96 95 92 78 74 74 64 71 74 74 74 38 39 57 60 48 52 61 65 66 64 63 60 53 49 51 58 59
89 99 100 100 100 100 100 100 100 100 100 99 95 95 99 85 80 81 65 60 61 67 75 80 82 70 37 47 65 61 50 54 62 65 74 70 70 67 66 67 66 65 62
92 100 100 100 100 100 100 100 95 89 88 78 82 90 82 74 66 58 58 66 67 78 83 79 68 56 44 58 68 58 50 56 62 66 74 75 72 75 75 72 69 67 62
82 95 100 100 100 100 100 100 92 74 65 64 61 66 59 58 64 69 75 80 86 91 87 66 50 56 60 59 69 59 49 51 63 65 66 75 78 75 75 75 74 72 65
73 92 100 100 100 100 100 100 85 98 94 96 97 86 84 81 87 92 90 92 96 91 80 62 51 61 67 67 61 56 52 48 54 64 64 68 74 75 73 71 68 66 64
85 93 88 84 98 100 100 100 100 100 100 99 96 96 94 100 99 96 97 91 87 78 60 56 58 65 63 63 56 49 49 47 44 56 63 63 65 68 67 67 65 59 57
83 88 89 88 87 93 95 98 100 100 100 100 100 100 100 97 99 91 90 81 73 52 56 52 50 56 61 54 47 41 36 38 40 52 61 57 57 59 63 61 58 50 45
82 88 92 96 99 100 99 99 100 100 100 100 99 100 100 98 89 87 67 55 53 47 43 35 36 40 43 43 45 37 35 34 40 47 51 56 53 58 61 56 49 38 28
90 99 100 100 100 100 100 100 100 100 100 97 99 99 92 84 62 55 56 58 45 38 32 25 24 25 28 32 34 30 31 40 50 50 52 58 63 60 57 47 34 29 23
86 80 83 85 86 80 82 86 90 89 86 83 75 55 50 52 50 49 51 48 39 30 25 25 25 25 26 30 37 42 44 49 55 60 61 62 60 52 43 32 28 24 20
79 82 84 83 79 72 63 53 46 43 41 48 57 55 50 39 40 44 39 36 30 34 39 40 41 44 44 43 47 53 62 66 65 63 60 53 46 41 35 30 22 20 18
36 42 44 47 50 50 49 55 61 63 58 50 45 38 34 35 35 29 27 29 41 49 47 45 45 54 62 62 60 62 63 59 55 51 46 40 34 26 20 18 17 16 15
43 43 44 42 39 41 42 41 43 43 37 35 31 28 28 28 26 25 35 45 50 49 56 62 60 62 66 65 64 64 56 48 43 39 29 21 18 16 16 15 14 13 10
39 40 40 42 42 38 30 30 32 32 30 31 25 27 28 34 41 41 44 51 63 65 62 61 61 64 64 57 52 46 39 32 24 18 17 18 17 15 12 11 10 9 9
35 31 28 27 26 26 27 26 26 27 29 33 40 46 50 50 49 58 64 66 65 62 61 59 55 52 46 39 33 26 20 16 15 17 17 16 15 14 13 12 12 13 15

GFSGL_250_rhum_177.txt.gz
RH
94 87 82 100 100 100 100 85 92 81 87 100 100 100 100 100 100 100 98 100 100 100 100 100 95 71 64 82 84 60 52 44 41 45 49 46 40 18 22 16 14 16 18
93 79 98 100 100 100 99 100 89 93 100 100 100 100 100 100 100 100 100 100 100 100 100 100 90 93 77 96 67 58 53 46 43 46 46 48 35 17 22 16 15 18 21
80 88 88 100 100 100 100 100 96 99 100 100 100 100 100 100 100 100 100 100 93 96 100 100 99 100 98 71 64 68 54 63 57 53 50 46 24 22 19 17 17 18 23
82 94 100 83 100 100 100 100 98 96 100 100 100 100 100 100 100 100 100 88 95 97 98 100 100 79 82 75 84 74 80 55 62 53 48 46 18 24 18 20 20 20 23
99 100 66 100 97 100 100 100 72 98 100 100 100 88 90 100 100 100 100 92 97 100 94 73 80 100 100 98 62 75 63 67 59 55 46 34 23 21 18 24 22 23 26
100 100 100 100 68 99 100 100 100 100 100 100 100 100 100 100 100 100 100 77 100 100 100 100 100 97 86 80 89 71 72 67 61 48 53 19 30 20 22 30 25 26 28
100 100 100 100 100 100 100 100 100 100 100 100 86 89 80 99 100 100 100 96 100 89 98 100 100 96 88 90 87 82 73 67 57 57 34 25 31 22 28 32 33 30 33
100 100 100 100 100 100 100 66 94 100 100 100 100 100 100 100 99 95 99 99 100 96 87 95 92 88 96 88 79 83 71 63 63 48 22 36 32 30 32 34 42 35 38
100 100 100 100 89 100 100 100 96 95 100 100 100 100 100 100 100 100 100 100 88 97 99 94 95 92 95 91 84 76 64 62 56 28 29 45 33 33 39 37 41 46 38
100 100 100 100 100 100 100 100 100 100 100 100 100 100 100 100 100 100 100 100 100 100 100 99 95 94 93 93 81 67 68 62 37 22 41 51 40 45 47 46 41 47 50
100 100 100 100 100 100 100 100 100 100 100 100 100 100 99 100 100 100 100 100 100 92 95 100 98 94 93 82 72 69 64 60 25 29 49 57 47 50 56 60 60 51 45
82 88 88 100 99 100 100 100 98 98 100 100 98 100 100 100 100 100 99 98 98 100 100 95 93 93 83 73 67 63 66 50 26 38 60 62 50 54 63 65 68 64 62
56 78 71 71 71 94 100 100 100 100 100 100 100 100 100 100 100 100 100 100 100 96 93 93 86 78 69 64 65 67 59 48 32 42 64 70 58 52 62 69 72 75 69
42 43 43 62 99 74 86 100 100 100 100 100 100 100 100 100 98 94 93 92 89 86 89 76 74 65 61 69 73 70 54 44 44 45 58 63 56 51 56 65 68 73 76
36 39 61 93 93 85 98 100 100 100 100 100 92 98 96 93 89 85 90 86 80 76 75 72 62 66 75 85 77 62 56 47 55 48 49 62 51 44 48 55 61 64 65
53 59 70 83 100 100 100 100 100 100 100 100 95 80 70 75 78 83 75 77 84 81 75 69 85 83 88 82 67 62 46 49 50 50 50 52 49 41 35 43 59 59 57
53 49 59 88 97 100 100 100 100 100 95 89 92 85 90 100 95 94 94 98 95 83 90 93 94 89 84 63 57 48 45 39 37 42 44 50 45 39 36 34 40 54 54
70 72 73 90 95 100 100 100 100 100 96 99 100 100 100 100 100 100 97 91 98 100 99 92 93 82 82 62 53 35 26 22 23 27 34 37 36 32 29 28 32 42 47
84 84 91 98 100 96 88 100 100 100 100 100 100 100 100 100 100 94 93 100 100 95 99 93 86 70 59 50 38 28 23 22 22 23 26 28 26 26 30 35 38 40 44
86 92 97 97 95 99 100 100 100 100 100 100 100 99 95 93 100 100 100 100 98 89 86 72 56 52 45 40 33 32 35 34 33 31 32 34 38 42 42 41 42 44 47
86 92 96 94 96 100 100 100 100 100 100 99 99 100 100 100 94 100 95 86 77 65 54 47 40 37 34 33 30 39 42 44 42 39 42 50 55 56 56 55 54 51 46
83 85 89 85 94 90 90 92 97 98 100 100 100 100 94 91 84 76 63 54 50 49 42 36 33 31 29 34 42 45 43 50 57 58 58 59 59 57 54 48 40 32 26
68 70 72 76 81 86 88 90 90 92 88 83 78 71 68 63 60 52 47 39 37 36 31 29 27 32 42 44 41 52 64 65 63 62 60 57 52 46 38 31 25 20 16
55 57 57 62 72 77 75 74 74 67 59 57 57 54 47 41 38 32 33 31 28 28 29 36 41 43 43 55 64 67 69 67 62 56 49 41 36 31 22 17 15 13 14
42 39 39 40 44 45 44 40 40 39 34 27 27 29 30 27 26 25 27 30 34 40 41 41 50 60 61 62 65 66 60 52 44 36 29 23 19 16 14 12 14 14 14
32 35 36 38 35 31 29 27 27 29 27 26 27 26 28 29 34 39 41 42 45 52 59 60 62 64 65 64 60 52 42 34 26 19 16 14 13 12 14 16 16 16 16